TV
NORAD ID: 25949
Int'l Code: 1999-059A
Perigee: 35,781.1 km
Apogee: 35,806.4 km
Inclination: 0.0 °
Period: 1,436.1 minutes
Semi major axis: 42164 km
Launch date: October 19, 1999
Source: United States (US)
Comments: Voice and video communications to the Americas, Europe, and Africa
Two Line Element Set (TLE):
1 25949U 99059A 13139.08241321 -.00000117 00000-0 00000+0 0 3521
2 25949 000.0071 040.6715 0003000 024.2531 186.6659 01.00271884 49748
Source: AFSPC
NASA's NSSDC Master Catalog entry for TELSTAR 12 (ORION 2)